Weather History for Monterrey Gen Maria, Mexico

Change the Weather History Date:

Wednesday, October 3, 2012

  Actual Average Record
Temperature  
Mean Temperature 78 °F -  
Max Temperature 95 °F 85 °F 95 °F (2012)
Min Temperature 62 °F 67 °F 62 °F (2010)
Cooling Degree Days 14    
Growing Degree Days 28 (Base 50)    
Moisture  
Dew Point 47 °F    
Average Humidity 35    
Maximum Humidity 63    
Minimum Humidity 14    
Precipitation  
Precipitation 0.00 in - - ()
Sea Level Pressure  
Sea Level Pressure 29.95 in    
Wind  
Wind Speed 6 mph ()    
Max Wind Speed 13 mph    
Max Gust Speed -    
Visibility 13.0 miles    
Events      
Averages and records for this station are not official NWS values.
T = Trace of Precipitation, MM = Missing Value Source: Averaged Metar Reports

Daily Weather History Graph

Daily Weather History Graph

Search for Another Location

Airport:

Trip Planner

Search our weather history database for the weather conditions in past years. The results will help you decide how hot, cold, wet, or windy it might be!

Date:

Astronomy

Oct. 03, 2012 Rise Set
Actual Time 7:33 AM CDT 7:24 PM CDT
Civil Twilight 7:10 AM CDT 7:47 PM CDT
Nautical Twilight 6:44 AM CDT 8:13 PM CDT
Astronomical Twilight 6:17 AM CDT 8:40 PM CDT
Moon 9:42 PM CDT (10/3) 10:35 AM CDT (10/3)
Length of Visible Light 12h 36m
Length of Day
11h 50m
Waning Gibbous, 88% of the Moon is Illuminated
Oct 3
Waning Gibbous
Oct 8
Last Quarter
Oct 15
New
Oct 21
First Quarter
Oct 29
Full

Hourly Weather History & Observations

Time (CDT) Temp. Dew Point Humidity Pressure Visibility Wind Dir Wind Speed Gust Speed Precip Events Conditions
12:49 AM 69.8 °F 50.0 °F 49% 29.99 in 15.0 mi SSE 8.1 mph - N/A   Clear
1:47 AM 69.8 °F 48.2 °F 46% 30.01 in 15.0 mi SE 8.1 mph - N/A   Clear
2:42 AM 66.2 °F 48.2 °F 52% 30.00 in 15.0 mi ESE 5.8 mph - N/A   Clear
3:41 AM 66.2 °F 50.0 °F 56% 29.96 in 15.0 mi NNE 4.6 mph - N/A   Clear
4:41 AM 62.6 °F 50.0 °F 63% 29.98 in 15.0 mi Calm Calm - N/A   Clear
5:42 AM 66.2 °F 50.0 °F 56% 29.98 in 15.0 mi Calm Calm - N/A   Clear
7:46 AM 64.4 °F 48.2 °F 56% 29.98 in 15.0 mi WNW 8.1 mph - N/A   Clear
8:41 AM 68.0 °F 50.0 °F 52% 29.99 in 15.0 mi WNW 9.2 mph - N/A   Clear
9:43 AM 75.2 °F 50.0 °F 41% 29.96 in 12.0 mi WNW 6.9 mph - N/A   Clear
10:40 AM 80.6 °F 50.0 °F 34% 29.99 in 10.0 mi NNW 6.9 mph - N/A   Clear
11:40 AM 86.0 °F 48.2 °F 27% 29.98 in 8.0 mi SW 5.8 mph - N/A   Clear
12:40 PM 89.6 °F 46.4 °F 22% 29.95 in 8.0 mi NNW 3.5 mph - N/A   Clear
1:45 PM 93.2 °F 42.8 °F 17% 29.93 in 8.0 mi WSW 4.6 mph - N/A   Clear
2:41 PM 95.0 °F 42.8 °F 16% 29.90 in 8.0 mi Calm Calm - N/A   Clear
3:44 PM 95.0 °F 42.8 °F 16% 29.88 in 12.0 mi South 8.1 mph - N/A   Clear
4:41 PM 95.0 °F 39.2 °F 14% 29.89 in 12.0 mi ESE 9.2 mph - N/A   Clear
5:44 PM 95.0 °F 39.2 °F 14% 29.89 in 15.0 mi SSE 12.7 mph - N/A   Clear
6:45 PM 91.4 °F 41.0 °F 17% 29.87 in 12.0 mi SE 5.8 mph - N/A   Clear
7:40 PM 84.2 °F 44.6 °F 25% 29.91 in 15.0 mi ESE 6.9 mph - N/A   Clear
8:41 PM 82.4 °F 46.4 °F 28% 29.93 in 15.0 mi SE 4.6 mph - N/A   Clear
9:40 PM 78.8 °F 48.2 °F 34% 29.93 in 15.0 mi ESE 9.2 mph - N/A   Clear
10:40 PM 77.0 °F 46.4 °F 34% 29.97 in 15.0 mi SE 9.2 mph - N/A   Clear
11:46 PM 77.0 °F 50.0 °F 39% 29.98 in 15.0 mi East 9.2 mph - N/A   Clear